sat.trackr.live / text

‹ back to catalog

SHIJIAN-6 04A (SJ-6 04A)

NORAD 37179 · 2010-051A

PAYLOAD ACTIVE UNKNOWN

§ Identity

Operator
Country
PRC
Launch date
2010-10-06
Launch site
TAISC
Launch vehicle
Mass (kg)
RCS (m²)
1.16

External: N2YO · Heavens-Above · Gunter

§ Orbital elements

Epoch: 2026-05-25T05:11:01.835808Z

Period
94.88 min
Inclination
97.8297°
Eccentricity
0.0017063
Mean motion
15.17667405 rev/d
Perigee alt
501.1 km
Apogee alt
524.7 km
Semi-major
6,891.0 km
B*
3.5124e-4
RAAN
167.6213°
Arg perigee
308.1316°
Mean anomaly
51.8378°
Rev number
85,346

§ Raw data

SHIJIAN-6 04A (SJ-6 04A)1 37179U 10051A   26145.21599347  .00007028  00000+0  35124-3 0  99962 37179  97.8297 167.6213 0017063 308.1316  51.8378 15.17667405853466

JSON: /api/v1/satellites/37179 · /tle

For live sub-satellite position, see the globe view (requires WebGL).

§ Visibility from observer

Set your observer location to see the next 7 days of passes ≥ 10°. The values pass through the URL so the page stays shareable.

No JS? Fill the form by hand. The geolocation button needs JavaScript.

§ Radio — SatNOGS DB

ModeDescriptionDownlinkUplink
FM S-band telemetry 2.230 GHz
FM S-band telemetry (inactive) 2.270 GHz

2 transmitters · refreshed weekly from db.satnogs.org